Location: Northam
(31.6525°S, 116.6655°E)
Time: 09:02:24
(UTC+08:00)

N. Korean satellite - Pass Details

Date: 20 May 2021
Orbit: 450 x 500 km, 97.2° (Epoch: 13 June)

Event Time Altitude Azimuth Distance (km) Brightness Sun altitude
Rises 18:05:23 0° 184° (S) 2,630 10.1 -9.5°
Reaches altitude 10° 18:07:43 10° 196° (SSW) 1,735 9.4 -9.9°
Maximum altitude 18:10:51 26° 253° (WSW) 1,030 8.9 -10.6°
Drops below altitude 10° 18:13:57 10° 310° (NW) 1,705 10.5 -11.2°
Sets 18:16:14 0° 323° (NW) 2,573 11.2 -11.7°
